WXM80 ListenWXM80 Stop

You find our weather info also at:

UK Metoffice

WeatherCloud

Weather Underground

Northeastern Weather Network

AWEKAS

Citizen Weather Observer Program (CWOP)

HAMweather, WeatherForYou, PWS Weather


Weather Underground History page Text

Daily Summary for January 8, 2017 Units:  Metric    English   Both
« Previous Day
Next Day »
Daily Weekly Monthly Yearly Custom
  High: Low: Average:
Temperature: -4.5 °C -7.8 °C -6.1 °C
Dew Point: -8.2 °C -13.8 °C -11.3 °C
Humidity: 85 % 52 % 67 %
Wind Speed: 20.9 km/h 3.2 km/h 11.3 km/h
Wind Gust: 46.7 km/h - -
Wind:- - WNW
Pressure: 1034.4 hPa 1019.5 hPa -
Precipitation: 0 mm    
Historical Graphs
 
 
Tabular Data for January 8, 2017
Time Temperature Dew Point Pressure Wind Wind Speed Wind Gust Humidity Rainfall Rate (Hourly)
00:03 -6.1 °C -8.2 °C 1019.9 hPa North 9.7 km/h 46.7 km/h 85 % 0 mm
00:08 -6 °C -8.4 °C 1019.5 hPa WNW 9.5 km/h 46.7 km/h 83 % 0 mm
00:13 -5.9 °C -8.4 °C 1019.9 hPa NNW 6.8 km/h 46.7 km/h 83 % 0 mm
00:18 -6 °C -8.3 °C 1019.9 hPa NNW 12.1 km/h 46.7 km/h 84 % 0 mm
00:23 -6 °C -8.4 °C 1019.9 hPa NNW 9.8 km/h 46.7 km/h 83 % 0 mm
00:28 -6 °C -8.4 °C 1019.5 hPa NNW 4.2 km/h 46.7 km/h 83 % 0 mm
00:34 -6.1 °C -8.3 °C 1019.5 hPa NW 10.9 km/h 46.7 km/h 84 % 0 mm
00:39 -6.1 °C -8.5 °C 1019.9 hPa North 10.1 km/h 46.7 km/h 83 % 0 mm
00:44 -6.1 °C -8.3 °C 1019.9 hPa NW 3.2 km/h 46.7 km/h 84 % 0 mm
00:49 -6.1 °C -8.2 °C 1019.9 hPa NW 3.2 km/h 46.7 km/h 85 % 0 mm
00:54 -6.1 °C -8.2 °C 1019.9 hPa NNW 8 km/h 46.7 km/h 85 % 0 mm
00:59 -6.1 °C -8.4 °C 1019.9 hPa North 11.1 km/h 46.7 km/h 84 % 0 mm
01:04 -6.1 °C -8.4 °C 1019.9 hPa WSW 6.8 km/h 46.7 km/h 84 % 0 mm
01:09 -6.1 °C -8.7 °C 1019.9 hPa NW 8.5 km/h 46.7 km/h 82 % 0 mm
01:14 -6.2 °C -8.4 °C 1019.9 hPa NNW 8 km/h 16.1 km/h 84 % 0 mm
01:19 -6.2 °C -8.6 °C 1019.9 hPa NW 9.7 km/h 46.7 km/h 83 % 0 mm
01:24 -6.2 °C -8.4 °C 1019.9 hPa NNW 8 km/h 20.9 km/h 84 % 0 mm
01:29 -6.1 °C -8.7 °C 1020.2 hPa North 12.9 km/h 25.7 km/h 82 % 0 mm
01:34 -6.1 °C -8.5 °C 1020.2 hPa North 4.8 km/h 19.3 km/h 83 % 0 mm
01:39 -6.1 °C -8.6 °C 1020.5 hPa NNW 13.8 km/h 46.7 km/h 83 % 0 mm
01:44 -6.1 °C -8.4 °C 1020.5 hPa North 7.2 km/h 46.7 km/h 84 % 0 mm
01:49 -6.1 °C -8.6 °C 1020.5 hPa NNW 9.7 km/h 25.7 km/h 83 % 0 mm
01:54 -6.2 °C -8.7 °C 1020.5 hPa NNW 11.3 km/h 20.9 km/h 82 % 0 mm
01:59 -6.2 °C -8.8 °C 1020.9 hPa NNW 14.8 km/h 46.7 km/h 82 % 0 mm
02:04 -6.3 °C -9 °C 1020.9 hPa North 13.2 km/h 46.7 km/h 81 % 0 mm
02:09 -6.3 °C -9.1 °C 1020.9 hPa NNW 11.3 km/h 19.3 km/h 81 % 0 mm
02:14 -6.3 °C -8.9 °C 1020.9 hPa NW 8 km/h 24.1 km/h 82 % 0 mm
02:19 -6.4 °C -9 °C 1021.2 hPa NW 8 km/h 27.4 km/h 82 % 0 mm
02:24 -6.5 °C -8.9 °C 1021.2 hPa WNW 5.8 km/h 46.7 km/h 83 % 0 mm
02:29 -6.6 °C -8.9 °C 1021.2 hPa NW 11.3 km/h 25.7 km/h 83 % 0 mm
02:34 -6.7 °C -9.1 °C 1021.2 hPa NW 8 km/h 16.1 km/h 83 % 0 mm
02:39 -6.7 °C -9.1 °C 1021.2 hPa NW 9.7 km/h 16.1 km/h 83 % 0 mm
02:44 -6.7 °C -9.1 °C 1021.2 hPa NNW 8 km/h 19.3 km/h 83 % 0 mm
02:49 -6.8 °C -9.2 °C 1021.2 hPa NNW 4.8 km/h 16.1 km/h 83 % 0 mm
02:54 -6.8 °C -9.1 °C 1021.2 hPa NW 9.7 km/h 24.1 km/h 84 % 0 mm
02:59 -6.8 °C -9.2 °C 1021.2 hPa WNW 7.1 km/h 46.7 km/h 83 % 0 mm
03:04 -6.8 °C -9.2 °C 1021.2 hPa North 5.1 km/h 46.7 km/h 83 % 0 mm
03:09 -6.9 °C -9.3 °C 1021.2 hPa North 5.8 km/h 46.7 km/h 83 % 0 mm
03:14 -6.9 °C -9.3 °C 1021.2 hPa NW 10.1 km/h 46.7 km/h 83 % 0 mm
03:19 -6.9 °C -9.5 °C 1021.2 hPa NW 10 km/h 46.7 km/h 82 % 0 mm
03:24 -6.9 °C -9.3 °C 1021.2 hPa NW 7.9 km/h 46.7 km/h 83 % 0 mm
03:29 -6.9 °C -9.3 °C 1021.2 hPa WNW 10 km/h 46.7 km/h 83 % 0 mm
03:35 -6.9 °C -9.3 °C 1021.2 hPa NNW 5.3 km/h 46.7 km/h 83 % 0 mm
03:40 -7 °C -9.4 °C 1021.6 hPa WNW 7.7 km/h 46.7 km/h 83 % 0 mm
03:45 -7 °C -9.4 °C 1021.2 hPa WNW 9.7 km/h 46.7 km/h 83 % 0 mm
03:50 -7 °C -9.4 °C 1021.6 hPa North 8.2 km/h 46.7 km/h 83 % 0 mm
03:55 -7 °C -9.4 °C 1021.6 hPa West 8 km/h 46.7 km/h 83 % 0 mm
04:00 -7.1 °C -9.4 °C 1021.6 hPa North 6.9 km/h 46.7 km/h 83 % 0 mm
04:05 -7.1 °C -9.5 °C 1021.6 hPa WNW 7.2 km/h 46.7 km/h 83 % 0 mm
04:10 -7.1 °C -9.7 °C 1021.6 hPa West 9.5 km/h 46.7 km/h 82 % 0 mm
04:16 -7.1 °C -9.7 °C 1021.6 hPa WNW 13.8 km/h 46.7 km/h 82 % 0 mm
04:21 -7.2 °C -9.7 °C 1021.6 hPa West 7.9 km/h 46.7 km/h 82 % 0 mm
04:26 -7.1 °C -9.7 °C 1021.6 hPa WNW 14.3 km/h 46.7 km/h 82 % 0 mm
04:31 -7.1 °C -9.8 °C 1021.6 hPa NW 9.5 km/h 46.7 km/h 81 % 0 mm
04:36 -7.2 °C -9.9 °C 1021.6 hPa NW 8.4 km/h 46.7 km/h 81 % 0 mm
04:41 -7.2 °C -10.1 °C 1021.9 hPa WNW 8.9 km/h 46.7 km/h 80 % 0 mm
04:46 -7.2 °C -9.9 °C 1021.6 hPa NW 15.8 km/h 46.7 km/h 81 % 0 mm
04:51 -7.2 °C -10.1 °C 1021.6 hPa West 8.9 km/h 46.7 km/h 80 % 0 mm
04:56 -7.3 °C -10.2 °C 1021.9 hPa NW 14 km/h 46.7 km/h 80 % 0 mm
05:01 -7.3 °C -10.2 °C 1021.9 hPa WNW 13.8 km/h 46.7 km/h 80 % 0 mm
05:06 -7.3 °C -10.2 °C 1021.9 hPa NW 4.8 km/h 46.7 km/h 80 % 0 mm
05:11 -7.3 °C -10.2 °C 1022.2 hPa WNW 12.9 km/h 46.7 km/h 80 % 0 mm
05:16 -7.3 °C -10.3 °C 1021.9 hPa West 9.8 km/h 46.7 km/h 79 % 0 mm
05:21 -7.3 °C -10.3 °C 1022.2 hPa WNW 14.6 km/h 46.7 km/h 79 % 0 mm
05:26 -7.4 °C -10.4 °C 1022.2 hPa WNW 9.5 km/h 46.7 km/h 79 % 0 mm
05:32 -7.4 °C -10.4 °C 1022.2 hPa NW 12.2 km/h 46.7 km/h 79 % 0 mm
05:37 -7.4 °C -10.6 °C 1022.2 hPa WNW 8.7 km/h 46.7 km/h 78 % 0 mm
05:42 -7.4 °C -10.6 °C 1022.2 hPa NNW 10.3 km/h 46.7 km/h 78 % 0 mm
05:47 -7.4 °C -10.4 °C 1022.2 hPa WNW 16.9 km/h 46.7 km/h 79 % 0 mm
05:52 -7.4 °C -10.4 °C 1022.2 hPa NW 9.3 km/h 46.7 km/h 79 % 0 mm
05:57 -7.4 °C -10.6 °C 1022.2 hPa NW 18 km/h 46.7 km/h 78 % 0 mm
06:02 -7.5 °C -10.7 °C 1022.2 hPa WNW 18.5 km/h 46.7 km/h 78 % 0 mm
06:07 -7.4 °C -10.6 °C 1022.2 hPa NNW 7.4 km/h 46.7 km/h 78 % 0 mm
06:12 -7.5 °C -10.8 °C 1022.6 hPa WNW 7.2 km/h 46.7 km/h 77 % 0 mm
06:17 -7.5 °C -10.8 °C 1022.6 hPa NW 15.3 km/h 46.7 km/h 77 % 0 mm
06:22 -7.5 °C -10.8 °C 1022.6 hPa NW 8.5 km/h 46.7 km/h 77 % 0 mm
06:27 -7.6 °C -11.1 °C 1022.6 hPa WNW 3.5 km/h 46.7 km/h 76 % 0 mm
06:32 -7.6 °C -11.1 °C 1022.9 hPa NW 14.6 km/h 46.7 km/h 76 % 0 mm
06:37 -7.7 °C -11.3 °C 1022.9 hPa WNW 12.4 km/h 46.7 km/h 75 % 0 mm
06:42 -7.7 °C -11.6 °C 1022.9 hPa WSW 10.1 km/h 46.7 km/h 74 % 0 mm
06:48 -7.8 °C -11.6 °C 1022.9 hPa WSW 10.3 km/h 46.7 km/h 74 % 0 mm
06:53 -7.8 °C -11.6 °C 1023.2 hPa WSW 13.2 km/h 46.7 km/h 74 % 0 mm
06:58 -7.8 °C -11.8 °C 1022.9 hPa WNW 11.3 km/h 46.7 km/h 73 % 0 mm
07:03 -7.8 °C -12 °C 1022.9 hPa WNW 11.1 km/h 46.7 km/h 72 % 0 mm
07:08 -7.8 °C -11.8 °C 1022.9 hPa West 8 km/h 46.7 km/h 73 % 0 mm
07:13 -7.8 °C -12 °C 1022.9 hPa SW 15.6 km/h 46.7 km/h 72 % 0 mm
07:18 -7.8 °C -11.9 °C 1022.9 hPa NNW 11.7 km/h 46.7 km/h 72 % 0 mm
07:23 -7.8 °C -11.8 °C 1022.9 hPa WSW 17.7 km/h 46.7 km/h 73 % 0 mm
07:28 -7.8 °C -11.9 °C 1023.2 hPa NNW 18.2 km/h 46.7 km/h 72 % 0 mm
07:33 -7.8 °C -11.8 °C 1023.2 hPa NW 10.3 km/h 46.7 km/h 73 % 0 mm
07:38 -7.8 °C -11.6 °C 1023.2 hPa SSW 10.1 km/h 46.7 km/h 74 % 0 mm
07:43 -7.7 °C -11.9 °C 1023.2 hPa SW 14.5 km/h 46.7 km/h 72 % 0 mm
07:49 -7.7 °C -11.9 °C 1023.2 hPa WSW 15.9 km/h 46.7 km/h 72 % 0 mm
07:54 -7.7 °C -12 °C 1023.2 hPa West 13.5 km/h 46.7 km/h 71 % 0 mm
07:59 -7.7 °C -11.8 °C 1023.6 hPa WNW 12.1 km/h 46.7 km/h 72 % 0 mm
08:04 -7.6 °C -11.8 °C 1023.6 hPa NW 14.8 km/h 46.7 km/h 72 % 0 mm
08:09 -7.6 °C -11.9 °C 1023.6 hPa WNW 14 km/h 46.7 km/h 71 % 0 mm
08:14 -7.6 °C -11.9 °C 1023.6 hPa WSW 13.4 km/h 46.7 km/h 71 % 0 mm
08:25 -7.4 °C -11.6 °C 1023.9 hPa SW 13.4 km/h 46.7 km/h 72 % 0 mm
08:39 -7.3 °C -11.7 °C 1023.9 hPa NW 14 km/h 46.7 km/h 71 % 0 mm
09:15 -7 °C -11.6 °C 1023.9 hPa WNW 8.2 km/h 46.7 km/h 70 % 0 mm
09:24 -7 °C -11.6 °C 1023.9 hPa WNW 11.3 km/h 46.7 km/h 70 % 0 mm
09:31 -6.9 °C -11.4 °C 1023.9 hPa West 14.8 km/h 46.7 km/h 70 % 0 mm
09:37 -6.8 °C -11.6 °C 1024.3 hPa West 9.7 km/h 46.7 km/h 69 % 0 mm
09:42 -6.8 °C -11.5 °C 1023.9 hPa WNW 6.8 km/h 46.7 km/h 69 % 0 mm
09:47 -6.7 °C -11.4 °C 1024.3 hPa WNW 6.8 km/h 46.7 km/h 69 % 0 mm
09:52 -6.6 °C -11.3 °C 1024.3 hPa WNW 10.6 km/h 46.7 km/h 69 % 0 mm
09:57 -6.7 °C -11.6 °C 1024.3 hPa West 12.7 km/h 46.7 km/h 68 % 0 mm
10:02 -6.7 °C -11.2 °C 1024.3 hPa NW 6.4 km/h 46.7 km/h 70 % 0 mm
10:07 -6.7 °C -11.4 °C 1024.3 hPa NW 13.4 km/h 46.7 km/h 69 % 0 mm
10:12 -6.7 °C -11.6 °C 1024.3 hPa WNW 6.6 km/h 46.7 km/h 68 % 0 mm
10:17 -6.7 °C -11.8 °C 1023.9 hPa NW 10.5 km/h 46.7 km/h 67 % 0 mm
10:23 -6.6 °C -11.7 °C 1023.9 hPa WNW 13.4 km/h 46.7 km/h 67 % 0 mm
10:28 -6.5 °C -11.8 °C 1023.9 hPa WSW 12.7 km/h 46.7 km/h 66 % 0 mm
10:33 -6.4 °C -11.7 °C 1023.9 hPa West 13.4 km/h 46.7 km/h 66 % 0 mm
10:38 -6.3 °C -11.6 °C 1023.9 hPa WNW 7.1 km/h 46.7 km/h 66 % 0 mm
10:43 -6.2 °C -11.3 °C 1023.6 hPa WNW 11.9 km/h 46.7 km/h 67 % 0 mm
10:48 -6.1 °C -11.6 °C 1023.6 hPa West 15.8 km/h 46.7 km/h 65 % 0 mm
10:53 -6 °C -11.5 °C 1023.9 hPa NW 8.7 km/h 46.7 km/h 65 % 0 mm
10:58 -5.9 °C -11.3 °C 1023.9 hPa NW 11.1 km/h 46.7 km/h 66 % 0 mm
11:03 -5.8 °C -11.3 °C 1023.9 hPa North 8 km/h 46.7 km/h 65 % 0 mm
11:08 -5.8 °C -11.5 °C 1023.9 hPa NW 18.5 km/h 46.7 km/h 64 % 0 mm
11:13 -5.8 °C -11.4 °C 1023.6 hPa NW 11.1 km/h 46.7 km/h 65 % 0 mm
11:18 -5.8 °C -11.2 °C 1023.6 hPa WNW 14 km/h 46.7 km/h 66 % 0 mm
11:23 -5.8 °C -11.6 °C 1023.6 hPa NNW 11.1 km/h 46.7 km/h 64 % 0 mm
11:29 -5.8 °C -11.2 °C 1023.6 hPa WNW 6.8 km/h 46.7 km/h 66 % 0 mm
11:33 -5.8 °C -11.2 °C 1023.9 hPa NW 6.6 km/h 46.7 km/h 66 % 0 mm
11:39 -5.8 °C -11.2 °C 1023.9 hPa NW 12.6 km/h 46.7 km/h 66 % 0 mm
11:44 -5.7 °C -11.4 °C 1023.6 hPa WNW 8.9 km/h 46.7 km/h 64 % 0 mm
11:49 -5.7 °C -11.4 °C 1023.6 hPa NNW 10.8 km/h 46.7 km/h 64 % 0 mm
11:54 -5.7 °C -11.4 °C 1023.2 hPa SW 10.9 km/h 46.7 km/h 64 % 0 mm
11:59 -5.8 °C -11.5 °C 1023.2 hPa WNW 7.9 km/h 46.7 km/h 64 % 0 mm
12:04 -5.7 °C -11.4 °C 1023.2 hPa WNW 10.6 km/h 46.7 km/h 64 % 0 mm
12:09 -5.7 °C -11.7 °C 1023.2 hPa WSW 14.2 km/h 46.7 km/h 63 % 0 mm
12:14 -5.7 °C -11.4 °C 1023.6 hPa North 15.1 km/h 46.7 km/h 64 % 0 mm
12:19 -5.7 °C -11.6 °C 1023.6 hPa West 10 km/h 46.7 km/h 63 % 0 mm
12:24 -5.7 °C -11.6 °C 1023.6 hPa WNW 13.8 km/h 46.7 km/h 63 % 0 mm
12:29 -5.8 °C -11.9 °C 1023.2 hPa NW 16.3 km/h 46.7 km/h 62 % 0 mm
12:35 -5.8 °C -11.9 °C 1023.2 hPa WNW 14.8 km/h 46.7 km/h 62 % 0 mm
12:40 -5.8 °C -11.9 °C 1023.2 hPa WNW 10 km/h 46.7 km/h 62 % 0 mm
12:45 -5.7 °C -11.8 °C 1023.2 hPa NW 12.2 km/h 46.7 km/h 62 % 0 mm
12:50 -5.6 °C -11.7 °C 1023.2 hPa NW 10.6 km/h 46.7 km/h 62 % 0 mm
12:55 -5.6 °C -11.7 °C 1023.2 hPa WNW 9.7 km/h 46.7 km/h 62 % 0 mm
13:00 -5.6 °C -11.7 °C 1023.2 hPa NW 8.7 km/h 46.7 km/h 62 % 0 mm
13:05 -5.7 °C -11.8 °C 1023.2 hPa NNW 10.8 km/h 46.7 km/h 62 % 0 mm
13:10 -5.8 °C -12.1 °C 1023.6 hPa NW 12.9 km/h 46.7 km/h 61 % 0 mm
13:15 -5.7 °C -12.3 °C 1023.6 hPa NNW 15.9 km/h 46.7 km/h 60 % 0 mm
13:20 -5.7 °C -12.4 °C 1023.6 hPa West 11.1 km/h 46.7 km/h 59 % 0 mm
13:25 -5.6 °C -12.2 °C 1023.6 hPa NW 10.8 km/h 46.7 km/h 60 % 0 mm
13:30 -5.4 °C -11.9 °C 1023.6 hPa WNW 5.5 km/h 46.7 km/h 60 % 0 mm
13:36 -5.2 °C -11.7 °C 1023.6 hPa WNW 6.3 km/h 46.7 km/h 60 % 0 mm
13:41 -5.1 °C -11.6 °C 1023.6 hPa West 14.2 km/h 46.7 km/h 60 % 0 mm
13:44 -5 °C -11.6 °C 1023.9 hPa WSW 11.9 km/h 46.7 km/h 60 % 0 mm
13:49 -4.9 °C -11.4 °C 1023.9 hPa NW 18 km/h 46.7 km/h 60 % 0 mm
13:54 -4.9 °C -11.9 °C 1023.9 hPa West 11.3 km/h 46.7 km/h 58 % 0 mm
13:59 -5.1 °C -11.8 °C 1023.9 hPa NW 7.9 km/h 46.7 km/h 59 % 0 mm
14:04 -5 °C -11.4 °C 1023.9 hPa WNW 10.5 km/h 46.7 km/h 61 % 0 mm
14:09 -4.9 °C -11.4 °C 1023.9 hPa West 13 km/h 46.7 km/h 60 % 0 mm
14:14 -4.8 °C -11.4 °C 1023.9 hPa WNW 9.3 km/h 46.7 km/h 60 % 0 mm
14:19 -4.7 °C -11.1 °C 1023.9 hPa WNW 8.5 km/h 46.7 km/h 61 % 0 mm
14:24 -4.7 °C -10.8 °C 1024.3 hPa NW 5.8 km/h 46.7 km/h 62 % 0 mm
14:29 -4.7 °C -11.1 °C 1024.3 hPa WNW 17.2 km/h 46.7 km/h 61 % 0 mm
14:35 -4.8 °C -11.2 °C 1024.3 hPa West 13.2 km/h 46.7 km/h 61 % 0 mm
14:40 -4.9 °C -11.3 °C 1024.6 hPa NW 14.5 km/h 46.7 km/h 61 % 0 mm
14:45 -4.9 °C -11.1 °C 1024.6 hPa WNW 11.1 km/h 46.7 km/h 62 % 0 mm
14:50 -4.9 °C -11.1 °C 1024.6 hPa NW 6.8 km/h 46.7 km/h 62 % 0 mm
14:55 -4.9 °C -10.8 °C 1024.9 hPa WNW 12.7 km/h 46.7 km/h 63 % 0 mm
15:00 -4.9 °C -11.1 °C 1024.9 hPa WSW 12.9 km/h 46.7 km/h 62 % 0 mm
15:05 -5 °C -11.4 °C 1024.9 hPa West 10.9 km/h 46.7 km/h 61 % 0 mm
15:10 -5.1 °C -11.2 °C 1024.9 hPa West 11.3 km/h 46.7 km/h 62 % 0 mm
15:15 -5 °C -11.2 °C 1025.3 hPa WNW 13.7 km/h 46.7 km/h 62 % 0 mm
15:20 -4.9 °C -11.1 °C 1025.3 hPa NNW 10 km/h 46.7 km/h 62 % 0 mm
15:25 -4.9 °C -11.5 °C 1025.3 hPa NW 9.5 km/h 46.7 km/h 60 % 0 mm
15:31 -4.8 °C -11.4 °C 1025.3 hPa WNW 8.7 km/h 46.7 km/h 60 % 0 mm
15:36 -4.8 °C -11.4 °C 1025.3 hPa NW 11.6 km/h 46.7 km/h 60 % 0 mm
15:41 -4.8 °C -11.6 °C 1025.3 hPa NW 9.3 km/h 46.7 km/h 59 % 0 mm
15:46 -4.8 °C -11.6 °C 1025.6 hPa WNW 7.1 km/h 46.7 km/h 59 % 0 mm
15:51 -4.7 °C -11.5 °C 1025.6 hPa NNW 12.6 km/h 46.7 km/h 59 % 0 mm
15:56 -4.7 °C -11.5 °C 1025.6 hPa WNW 6.4 km/h 46.7 km/h 59 % 0 mm
16:01 -4.7 °C -11.5 °C 1025.6 hPa NNW 14.5 km/h 46.7 km/h 59 % 0 mm
16:06 -4.8 °C -11.6 °C 1026 hPa NW 9.2 km/h 46.7 km/h 59 % 0 mm
16:11 -4.8 °C -11.4 °C 1026 hPa West 8.2 km/h 46.7 km/h 60 % 0 mm
16:16 -4.8 °C -11.6 °C 1026 hPa NW 12.4 km/h 46.7 km/h 59 % 0 mm
16:22 -4.8 °C -11.8 °C 1026 hPa NNW 8.2 km/h 46.7 km/h 58 % 0 mm
16:27 -4.7 °C -11.7 °C 1026.3 hPa West 12.6 km/h 46.7 km/h 58 % 0 mm
16:32 -4.7 °C -11.5 °C 1026.3 hPa NW 8.5 km/h 46.7 km/h 59 % 0 mm
16:37 -4.7 °C -11.5 °C 1026.3 hPa NNW 8.7 km/h 46.7 km/h 59 % 0 mm
16:42 -4.7 °C -11.3 °C 1026.6 hPa WSW 11.6 km/h 46.7 km/h 60 % 0 mm
16:47 -4.7 °C -11.3 °C 1026.6 hPa West 6.9 km/h 46.7 km/h 60 % 0 mm
16:52 -4.7 °C -11.7 °C 1026.6 hPa WNW 13.4 km/h 46.7 km/h 58 % 0 mm
16:57 -4.7 °C -12.2 °C 1026.6 hPa West 6.1 km/h 46.7 km/h 56 % 0 mm
17:02 -4.7 °C -12.8 °C 1026.6 hPa NW 12.4 km/h 46.7 km/h 53 % 0 mm
17:07 -4.7 °C -12.8 °C 1026.6 hPa WSW 16.6 km/h 46.7 km/h 53 % 0 mm
17:12 -4.7 °C -12.8 °C 1026.6 hPa WNW 13 km/h 46.7 km/h 53 % 0 mm
17:17 -4.7 °C -12.3 °C 1027 hPa NW 13 km/h 46.7 km/h 55 % 0 mm
17:22 -4.6 °C -12 °C 1027 hPa NW 15 km/h 46.7 km/h 56 % 0 mm
17:27 -4.6 °C -12.4 °C 1027 hPa NW 14.2 km/h 46.7 km/h 54 % 0 mm
17:32 -4.6 °C -12 °C 1027.3 hPa NW 11.9 km/h 46.7 km/h 56 % 0 mm
17:37 -4.5 °C -11.9 °C 1027.3 hPa NNW 13.8 km/h 46.7 km/h 56 % 0 mm
17:43 -4.5 °C -12.2 °C 1027.7 hPa NNW 13 km/h 46.7 km/h 55 % 0 mm
17:48 -4.6 °C -12.4 °C 1027.7 hPa West 12.1 km/h 46.7 km/h 54 % 0 mm
17:53 -4.6 °C -12.3 °C 1027.7 hPa NW 14.5 km/h 46.7 km/h 55 % 0 mm
17:58 -4.7 °C -12.3 °C 1028 hPa WNW 12.9 km/h 46.7 km/h 55 % 0 mm
18:03 -4.7 °C -12.6 °C 1028 hPa WNW 19.6 km/h 46.7 km/h 54 % 0 mm
18:08 -4.8 °C -12.4 °C 1028.3 hPa NW 13.8 km/h 46.7 km/h 55 % 0 mm
18:13 -4.8 °C -12 °C 1028.3 hPa NW 14.3 km/h 46.7 km/h 57 % 0 mm
18:18 -4.8 °C -12.3 °C 1028.7 hPa NNW 14.5 km/h 46.7 km/h 56 % 0 mm
18:23 -4.9 °C -12.6 °C 1029 hPa NW 17.5 km/h 46.7 km/h 55 % 0 mm
18:28 -5 °C -12.7 °C 1029 hPa WNW 13.2 km/h 46.7 km/h 55 % 0 mm
18:33 -5.1 °C -12.5 °C 1029 hPa North 9.7 km/h 46.7 km/h 56 % 0 mm
18:38 -5.1 °C -12.8 °C 1029.3 hPa NW 13.5 km/h 46.7 km/h 55 % 0 mm
18:43 -5.2 °C -12.8 °C 1029.3 hPa NW 10 km/h 46.7 km/h 55 % 0 mm
18:48 -5.2 °C -12.4 °C 1029.3 hPa WSW 8 km/h 46.7 km/h 57 % 0 mm
18:53 -5.2 °C -12.7 °C 1029.7 hPa NNW 11.6 km/h 46.7 km/h 56 % 0 mm
18:59 -5.3 °C -12.5 °C 1029.7 hPa WNW 9.2 km/h 46.7 km/h 57 % 0 mm
19:04 -5.2 °C -12.4 °C 1029.7 hPa NW 9.8 km/h 46.7 km/h 57 % 0 mm
19:09 -5.3 °C -12.5 °C 1030 hPa WNW 8.2 km/h 46.7 km/h 57 % 0 mm
19:14 -5.3 °C -13.4 °C 1030 hPa NW 15.9 km/h 46.7 km/h 53 % 0 mm
19:19 -5.3 °C -12.9 °C 1030 hPa WNW 14 km/h 46.7 km/h 55 % 0 mm
19:24 -5.3 °C -13.2 °C 1030 hPa NW 19.2 km/h 46.7 km/h 54 % 0 mm
19:29 -5.3 °C -13.6 °C 1030.4 hPa NW 18.8 km/h 46.7 km/h 52 % 0 mm
19:34 -5.3 °C -13.4 °C 1030.4 hPa NW 14.5 km/h 29 km/h 53 % 0 mm
19:39 -5.3 °C -13.7 °C 1030.4 hPa WNW 20.9 km/h 38.6 km/h 52 % 0 mm
19:44 -5.4 °C -13.5 °C 1030.4 hPa WNW 14.5 km/h 33.8 km/h 53 % 0 mm
19:49 -5.4 °C -13.6 °C 1030.4 hPa West 15.1 km/h 46.7 km/h 53 % 0 mm
19:54 -5.4 °C -13.6 °C 1030.7 hPa WNW 16.1 km/h 37 km/h 53 % 0 mm
19:59 -5.5 °C -13.8 °C 1030.7 hPa NW 10.3 km/h 46.7 km/h 52 % 0 mm
20:04 -5.6 °C -13.6 °C 1031 hPa NNW 12.7 km/h 46.7 km/h 53 % 0 mm
20:09 -5.7 °C -13.7 °C 1031 hPa WNW 10.6 km/h 46.7 km/h 53 % 0 mm
20:14 -5.7 °C -13.6 °C 1031 hPa NW 7.4 km/h 46.7 km/h 54 % 0 mm
20:19 -5.8 °C -13.4 °C 1031 hPa WNW 14.3 km/h 46.7 km/h 55 % 0 mm
20:24 -5.8 °C -13 °C 1031.4 hPa NNW 12.2 km/h 46.7 km/h 57 % 0 mm
20:29 -5.8 °C -13.4 °C 1031.4 hPa WNW 12.9 km/h 46.7 km/h 55 % 0 mm
20:34 -5.8 °C -13 °C 1031.4 hPa NW 20.8 km/h 46.7 km/h 57 % 0 mm
20:39 -5.9 °C -13.1 °C 1031.7 hPa WNW 11.7 km/h 46.7 km/h 57 % 0 mm
20:45 -5.9 °C -12.9 °C 1031.7 hPa West 9.7 km/h 46.7 km/h 58 % 0 mm
20:50 -6 °C -13.2 °C 1031.7 hPa WNW 14 km/h 46.7 km/h 57 % 0 mm
20:55 -6 °C -12.7 °C 1031.7 hPa NW 12.1 km/h 46.7 km/h 59 % 0 mm
21:00 -6.1 °C -13.2 °C 1031.7 hPa NW 10.3 km/h 46.7 km/h 57 % 0 mm
21:05 -6.1 °C -12.8 °C 1032.1 hPa WNW 10 km/h 46.7 km/h 59 % 0 mm
21:10 -6.1 °C -13.1 °C 1032.1 hPa West 10.8 km/h 46.7 km/h 58 % 0 mm
21:15 -6.2 °C -13.1 °C 1032.4 hPa WSW 9.8 km/h 46.7 km/h 58 % 0 mm
21:20 -6.2 °C -12.7 °C 1032.4 hPa SW 15.1 km/h 46.7 km/h 60 % 0 mm
21:25 -6.2 °C -12.7 °C 1032.4 hPa North 7.6 km/h 46.7 km/h 60 % 0 mm
21:30 -6.2 °C -12.9 °C 1032.4 hPa NW 9.5 km/h 46.7 km/h 59 % 0 mm
21:35 -6.3 °C -13 °C 1032.7 hPa NW 16.1 km/h 46.7 km/h 59 % 0 mm
21:40 -6.3 °C -13.3 °C 1032.7 hPa NW 9.2 km/h 46.7 km/h 58 % 0 mm
21:45 -6.4 °C -12.9 °C 1032.7 hPa WNW 6.1 km/h 46.7 km/h 60 % 0 mm
21:50 -6.4 °C -13.1 °C 1032.7 hPa NW 16.3 km/h 46.7 km/h 59 % 0 mm
21:55 -6.4 °C -12.7 °C 1033.1 hPa WNW 12.9 km/h 46.7 km/h 61 % 0 mm
22:00 -6.4 °C -12.7 °C 1033.1 hPa North 10.5 km/h 46.7 km/h 61 % 0 mm
22:05 -6.5 °C -13 °C 1033.1 hPa West 13.7 km/h 46.7 km/h 60 % 0 mm
22:11 -6.6 °C -12.8 °C 1033.4 hPa NW 11.4 km/h 46.7 km/h 61 % 0 mm
22:16 -6.6 °C -13.1 °C 1033.4 hPa NNW 11.7 km/h 46.7 km/h 60 % 0 mm
22:21 -6.6 °C -12.9 °C 1033.4 hPa NW 10.6 km/h 46.7 km/h 61 % 0 mm
22:26 -6.6 °C -12.9 °C 1033.4 hPa NW 10.3 km/h 46.7 km/h 61 % 0 mm
22:31 -6.7 °C -12.9 °C 1033.7 hPa West 9.7 km/h 46.7 km/h 61 % 0 mm
22:36 -6.7 °C -12.9 °C 1033.7 hPa West 12.4 km/h 46.7 km/h 61 % 0 mm
22:41 -6.8 °C -13.1 °C 1033.7 hPa NW 14.8 km/h 46.7 km/h 61 % 0 mm
22:46 -6.8 °C -12.8 °C 1033.7 hPa West 14 km/h 46.7 km/h 62 % 0 mm
22:51 -6.8 °C -12.9 °C 1034.1 hPa NW 12.4 km/h 46.7 km/h 62 % 0 mm
22:56 -6.8 °C -12.9 °C 1034.1 hPa NW 13 km/h 46.7 km/h 62 % 0 mm
23:01 -6.9 °C -12.9 °C 1034.1 hPa WNW 13.5 km/h 46.7 km/h 62 % 0 mm
23:06 -6.9 °C -12.8 °C 1034.1 hPa WNW 13 km/h 46.7 km/h 63 % 0 mm
23:11 -6.9 °C -12.9 °C 1034.1 hPa NW 12.6 km/h 46.7 km/h 62 % 0 mm
23:16 -6.9 °C -13 °C 1034.1 hPa WNW 10.5 km/h 46.7 km/h 62 % 0 mm
23:22 -6.9 °C -13 °C 1034.1 hPa NW 9.2 km/h 46.7 km/h 62 % 0 mm
23:27 -6.9 °C -12.8 °C 1034.4 hPa WNW 14.8 km/h 46.7 km/h 63 % 0 mm
23:32 -7 °C -12.9 °C 1034.1 hPa SW 16.4 km/h 46.7 km/h 63 % 0 mm
23:37 -7 °C -12.9 °C 1034.1 hPa NW 11.9 km/h 46.7 km/h 63 % 0 mm
23:42 -7.1 °C -12.7 °C 1034.4 hPa NW 12.7 km/h 46.7 km/h 64 % 0 mm
23:47 -7 °C -12.7 °C 1034.1 hPa West 11.1 km/h 46.7 km/h 64 % 0 mm
23:52 -7.1 °C -12.9 °C 1034.4 hPa West 10.8 km/h 46.7 km/h 63 % 0 mm
23:57 -7.1 °C -12.9 °C 1034.4 hPa WNW 6.8 km/h 46.7 km/h 63 % 0 mm
Crab Meadow Weather
Compliments of Weather Underground - 2.75 mb

Script developed by  Jim McMurry - jmcmurry@mwt.net Adapted for the template by  Wim van der Kuil - Leuven-Template.eu

Barometer: A barometer is an instrument used to measure atmospheric pressure. A barometer is commonly used for weather prediction, as high air pressure in a region indicates fair weather while low pressure indicates that storms are more likely. When used in combination with wind observations, reasonably accurate short-term forecasts can be made.